Voltar ao catálogo

LANDSAT 9

AtivoCiênciaSSO
NORAD 49260·PAYLOAD·🇺🇸 United States

Lançado Sep 27, 2021 de Vandenberg Space Force Base

Loading…

Próximas Passagens (próximas 24 horas)

TLE

AtualizadoSource: Space-Track

Época: Sep 14, 2026, 14:30 UTC

1 49260U 21088A   26257.60467046  .00000225  00000-0  60002-4 0  9996
2 49260  98.2202 326.6627 0001492  99.8399 260.2968 14.57111046264028

Acompanhe LANDSAT 9 em tempo real com AllMySat

Download on the App Store